DW0942 Weather Reports


Display with metric or nautical units.
time (UTC)temp
F
wind
direction
speed
MPH
gust
MPH
rain 1hr
in
rain 24hr
in
rain mn
in
humidity
%
barometer
mb
20260506061512 60 7 1.0 11.0 0.00 0.12 0.12 96 1025.1
20260506044516 60 307 2.0 18.0 0.00 0.12 0.12 96 1025.0
20260506043022 60 248 3.0 13.0 0.00 0.12 0.12 96 1025.3
20260506041528 60 237 2.0 10.0 0.00 0.12 0.12 96 1025.0
20260506040014 60 279 3.0 13.0 0.00 0.12 0.12 96 1025.1
20260506034520 60 252 3.0 12.0 0.00 0.12 0.12 96 1025.1
20260506033020 59 94 3.0 16.0 0.00 0.12 0.12 96 1025.0
20260506031522 60 237 3.0 8.0 0.00 0.12 0.12 96 1024.9
20260506030037 59 325 2.0 12.0 0.00 0.12 0.12 96 1024.4
20260506024530 59 335 2.0 11.0 0.00 0.12 0.12 96 1024.4
20260506023020 59 70 2.0 11.0 0.00 0.12 0.12 96 1024.4
20260506021521 59 313 2.0 8.0 0.00 0.12 0.12 96 1024.4
20260506020024 59 188 3.0 8.0 0.00 0.12 0.12 96 1024.5
20260506014527 59 238 5.0 12.0 0.00 0.12 0.12 96 1024.4
20260506013023 58 191 4.0 11.0 0.04 0.12 0.12 96 1024.6
20260506011520 58 228 2.0 11.0 0.08 0.12 0.12 96 1024.8
20260506010029 58 334 5.0 11.0 0.10 0.12 0.12 96 1025.0
20260506004528 58 231 3.0 7.0 0.09 0.11 0.11 96 1025.3
20260506003033 58 43 5.0 13.0 0.05 0.07 0.07 96 1025.2
20260506001519 58 39 3.0 12.0 0.02 0.03 0.03 96 1025.6
20260506000022 58 51 2.0 13.0 0.02 0.02 0.02 96 1025.7
20260505234533 58 72 2.0 9.0 0.02 0.02 0.02 96 1025.9
20260505233024 58 96 2.0 7.0 0.02 0.02 0.02 95 1025.9
20260505231527 58 247 4.0 14.0 0.01 0.01 0.01 95 1025.7
20260505230035 59 310 2.0 13.0 0.00 0.00 0.00 95 1025.9
20260505224522 58 266 2.0 10.0 0.00 0.00 0.00 95 1025.9
20260505223029 58 240 5.0 12.0 0.00 0.00 0.00 95 1025.9
20260505221533 58 129 2.0 11.0 0.00 0.00 0.00 95 1025.9
20260505220027 58 245 4.0 15.0 0.00 0.00 0.00 95 1025.9
20260505214524 58 295 2.0 9.0 0.00 0.00 0.00 95 1026.1
20260505213016 58 302 2.0 7.0 0.00 0.00 0.00 95 1026.1
20260505211516 58 187 3.0 12.0 0.00 0.00 0.00 94 1026.1
20260505210013 57 199 3.0 10.0 0.00 0.00 0.00 94 1026.3
20260505204518 57 221 2.0 6.0 0.00 0.00 0.00 94 1026.5
20260505203020 57 88 1.0 7.0 0.00 0.00 0.00 93 1026.4
20260505201518 57 250 2.0 7.0 0.00 0.00 0.00 93 1026.5
20260505200030 57 271 1.0 10.0 0.00 0.00 0.00 93 1026.4
20260505194515 57 216 2.0 10.0 0.00 0.00 0.00 93 1026.4
20260505193019 57 233 2.0 10.0 0.00 0.00 0.00 94 1026.4
20260505191520 56 165 2.0 9.0 0.00 0.00 0.00 93 1026.1
20260505190018 56 301 2.0 14.0 0.00 0.00 0.00 93 1026.3
20260505184524 56 200 4.0 11.0 0.00 0.00 0.00 93 1026.0
20260505183020 56 205 2.0 7.0 0.00 0.00 0.00 94 1026.2
20260505181505 56 255 2.0 9.0 0.00 0.00 0.00 94 1026.4
20260505180008 56 230 2.0 8.0 0.00 0.00 0.00 94 1026.5
20260505174515 56 226 2.0 11.0 0.00 0.00 0.00 93 1026.6
20260505173035 56 280 1.0 13.0 0.00 0.00 0.00 93 1026.6
20260505171522 56 49 2.0 12.0 0.00 0.00 0.00 93 1026.6
20260505170006 56 230 1.0 8.0 0.00 0.00 0.00 92 1026.7
20260505164527 56 15 1.0 7.0 0.00 0.00 0.00 92 1026.7
20260505163015 56 239 1.0 5.0 0.00 0.00 0.00 92 1026.9
20260505161518 56 93 1.0 8.0 0.00 0.00 0.00 92 1027.0
20260505153013 56 70 2.0 7.0 0.00 0.00 0.00 90 1027.4
20260505151519 56 282 2.0 6.0 0.00 0.00 0.00 89 1027.6
20260505124526 55 262 2.0 7.0 0.00 0.00 0.00 84 1028.9
20260505123025 55 113 1.0 9.0 0.00 0.00 0.00 83 1028.9
20260505121530 55 304 3.0 9.0 0.00 0.00 0.00 83 1029.0
20260505120011 55 59 1.0 9.0 0.00 0.00 0.00 82 1029.1
20260505114531 55 317 1.0 10.0 0.00 0.00 0.00 82 1029.0
20260505113021 55 191 1.0 8.0 0.00 0.00 0.00 82 1029.0
20260505111532 55 239 2.0 6.0 0.00 0.00 0.00 82 1029.0
20260505101524 55 210 2.0 6.0 0.00 0.00 0.00 82 1029.4
20260505100034 54 25 1.0 6.0 0.00 0.00 0.00 83 1029.4
20260505094524 55 219 1.0 9.0 0.00 0.00 0.00 83 1029.5
20260505093016 55 273 3.0 15.0 0.00 0.00 0.00 82 1029.4
20260505091523 54 244 2.0 5.0 0.00 0.00 0.00 83 1029.5
20260505090044 54 291 1.0 7.0 0.00 0.00 0.00 84 1029.5
20260505084535 54 231 1.0 5.0 0.00 0.00 0.00 85 1029.5
20260505083038 54 79 1.0 7.0 0.00 0.00 0.00 86 1029.5
20260505081528 53 223 1.0 7.0 0.00 0.00 0.00 86 1029.7
20260505080035 53 217 0.0 5.0 0.00 0.00 0.00 86 1029.7
20260505074527 53 224 1.0 3.0 0.00 0.00 0.00 87 1029.8
20260505073012 53 260 1.0 7.0 0.00 0.00 0.00 87 1030.0
20260505071524 53 278 1.0 5.0 0.00 0.00 0.00 88 1030.0
20260505070025 53 183 2.0 6.0 0.00 0.00 0.00 88 1029.9
20260505064521 53 58 1.0 9.0 0.00 0.00 0.00 88 1029.9